[[{"header":{"parameterUnit":"m.s-1","parameterCategory":1,"la1":30.2991,"la2":30.254,"lo1":-89.0895,"lo2":-89.0444,"dy":0.0017,"dx":0.0017,"nx":28,"ny":28,"refTime":"2026-02-16T03:00:00:Z","depth":0,"parameterNumber":2,"parameterNumberName":"U-component_of_WINDS"},"data":[0,0,0,0,0,0,0,0,0,0,0,0,0,0,0,0,0,0,0,0,0,0,0,0,0,0,0,0,0,0,0,0,0,0,0,0,0,0,0,0,0,0,0,0,0,0,0,0,0,0,0,0,0,0,0,0,0,0,3.0741,3.0742,0,3.0861,3.0863,3.0864,3.0891,3.089,3.0889,3.0889,3.1012,3.1016,3.102,0,0,0,0,0,0,0,0,0,0,0,0,0,3.0536,3.054,3.0741,3.0742,3.0744,3.0861,3.0863,3.0865,3.0891,3.089,3.0889,3.0888,3.1011,3.1016,3.1021,0,0,0,0,0,0,0,0,0,0,0,0,0,3.0638,3.0541,3.0741,3.0771,3.0775,3.0861,3.0863,3.0865,3.0891,3.089,3.0889,3.0888,3.1009,3.1015,3.1021,3.1085,0,0,3.104,3.1043,0,0,0,0,0,0,0,0,3.0632,3.0645,3.0765,3.0769,3.0774,3.086,3.0836,3.0939,3.0892,3.0847,3.0889,3.0887,3.0963,3.0972,3.0998,3.1091,3.1096,3.1041,3.1044,3.1047,3.1049,0,0,0,0,0,0,0,3.0625,3.064,3.0789,3.0767,3.0772,3.078,3.0793,3.0856,3.0911,3.0851,3.0853,3.0867,3.0965,3.0992,3.1001,3.1098,3.104,3.1046,3.105,3.1052,3.1252,3.1253,0,0,0,0,0,0,3.0612,3.0634,3.0785,3.0792,3.0698,3.0785,3.0799,3.0834,3.091,3.0921,3.0868,3.0868,3.0982,3.0994,3.1005,3.1086,3.1047,3.1053,3.1056,3.125,3.1252,3.1254,0,0,0,0,0,0,3.0608,3.0625,3.078,3.0714,3.0734,3.079,3.0828,3.0837,3.0864,3.0923,3.0933,3.0886,3.0982,3.0997,3.1066,3.1091,3.1055,3.1061,3.1248,3.1251,3.1253,3.1248,0,0,0,0,0,0,3.0602,3.0624,3.0647,3.0714,3.0738,3.0837,3.083,3.084,3.0874,3.0875,3.0942,3.0952,3.0982,3.1056,3.1072,3.1099,3.1066,3.1246,3.1249,3.1252,3.1246,3.125,3.1253,0,0,0,0,0,3.0594,3.0641,3.0649,3.0667,3.0768,3.0838,3.0852,3.0885,3.0876,3.0901,3.094,3.095,3.1086,3.1063,3.1081,3.111,3.1245,3.1248,3.1252,3.1244,3.1249,3.1253,0,0,0,0,0,0,3.0575,3.065,3.0659,3.0729,3.0777,3.0843,3.0875,3.0888,3.094,3.0939,3.0978,3.0993,3.106,3.1092,3.1065,3.1177,3.1165,3.1172,3.1153,3.1158,3.1162,3.1152,3.1071,0,0,0,0,0,3.0579,3.0629,3.0692,3.0747,3.0771,3.0819,3.085,3.0872,3.0924,3.0944,3.0988,3.1038,3.1093,3.1127,3.118,3.1251,3.1267,3.128,3.1284,3.1286,3.1292,3.1334,3.1341,3.1266,3.1266,3.1266,0,0,3.0587,3.0634,3.0663,3.0744,3.0784,3.0836,3.0836,3.089,3.0929,3.0953,3.102,3.1054,3.1113,3.1184,3.1217,3.1213,3.1317,3.1291,3.1293,3.1297,3.1339,3.1346,3.1352,3.1268,3.1268,3.1267,0,0,3.0628,3.0668,3.072,3.076,3.0822,3.0854,3.0866,3.0931,3.0954,3.1023,3.1043,3.1091,3.1183,3.1225,3.1258,3.1319,3.1331,3.1335,3.1353,3.1394,3.14,3.1405,3.1428,3.1436,3.1341,3.1341,3.1341,0,3.063,3.0709,3.0744,3.0798,3.0834,3.0859,3.0912,3.095,3.1025,3.105,3.1044,3.1163,3.1204,3.1285,3.1301,3.1326,3.1343,3.1327,3.1396,3.1402,3.1408,3.143,3.1438,3.1341,3.1341,3.1341,3.1341,0,3.0709,3.0764,3.0798,3.0871,3.0911,3.0964,3.1009,3.1045,3.1064,3.1097,3.1169,3.122,3.1284,3.1306,3.1324,3.1391,3.1387,3.1388,3.1377,3.1414,3.1436,3.1445,3.1341,3.1341,3.1341,3.1341,0,0,3.0739,3.0833,3.0845,3.0879,3.095,3.0993,3.1049,3.1113,3.1144,3.1196,3.1244,3.1324,3.1326,3.1364,3.1388,3.1424,3.1471,3.1422,3.1424,3.1429,3.1549,3.1548,3.1557,3.148,3.1481,3.1483,3.1545,0,3.0789,3.0888,3.0924,3.1006,3.1058,3.1084,3.1133,3.1182,3.1215,3.1265,3.1302,3.1358,3.1357,3.138,3.1417,3.1457,3.1495,3.1453,3.1526,3.1528,3.151,3.1568,3.1566,3.1621,3.1553,3.1555,3.1556,0,3.086,3.0914,3.1002,3.1069,3.1092,3.1135,3.1198,3.1244,3.1302,3.1324,3.1368,3.139,3.1451,3.1437,3.1522,3.1493,3.1525,3.155,3.1553,3.1561,3.1543,3.1577,3.164,3.1648,3.1569,3.1568,3.1567,0,3.0874,3.0969,3.1034,3.1063,3.1142,3.1172,3.1207,3.1263,3.13,3.1356,3.138,3.1442,3.1476,3.1524,3.1563,3.1549,3.1645,3.1634,3.1666,3.1665,3.1684,3.1682,3.1752,3.1705,3.1705,3.1705,3.1704,0,3.0926,3.0979,3.1042,3.1082,3.1142,3.1183,3.1243,3.1279,3.133,3.1378,3.1405,3.145,3.1499,3.1551,3.1583,3.1649,3.1664,3.1684,3.1692,3.1682,3.1679,3.1703,3.17,3.1707,3.1706,3.1706,3.1706,0,3.0951,3.0995,3.1068,3.1138,3.1157,3.1199,3.1259,3.13,3.1336,3.1397,3.1414,3.147,3.1533,3.1578,3.1658,3.168,3.1752,3.1759,3.1732,3.1736,3.1766,3.1762,3.1853,3.1868,3.181,3.1811,3.1811,0,3.0981,3.1023,3.1098,3.1132,3.1167,3.1222,3.1261,3.1304,3.1343,3.1414,3.1446,3.1511,3.1565,3.1665,3.1714,3.1777,3.1786,3.1814,3.1795,3.1785,3.1787,3.1784,3.1789,3.1816,3.1816,3.1817,3.1817,0,3.103,3.1051,3.1105,3.1168,3.1213,3.1265,3.1317,3.1344,3.1396,3.144,3.1505,3.1547,3.1631,3.1695,3.1763,3.18,3.1818,3.1823,3.1833,3.1823,3.1806,3.1816,3.174,3.182,3.182,3.1819,3.1819,3.1819,3.1059,3.1098,3.1158,3.1218,3.1262,3.1311,3.1353,3.1395,3.145,3.1521,3.1544,3.1612,3.1671,3.1765,3.1803,3.1857,3.1856,3.1871,3.1875,3.1878,3.1878,3.1798,3.187,3.187,3.187,3.187,3.187,0,3.111,3.115,3.1206,3.1278,3.1326,3.134,3.1399,3.1438,3.1497,3.1551,3.1605,3.1681,3.1745,3.18,3.1866,3.1899,3.1909,3.1915,3.1913,3.1922,3.1875,3.186,3.1906,3.1906,3.1906,3.1906,3.1906,3.1906,3.1142,3.1209,3.1237,3.1327,3.1367,3.1434,3.1467,3.1512,3.1556,3.164,3.1693,3.1729,3.1784,3.1855,3.1915,3.193,3.1953,3.1957,3.1974,3.1929,3.1925,3.1921,3.1906,3.1962,3.1962,3.2016,3.2016,3.2016]},{"header":{"parameterUnit":"m.s-1","parameterCategory":1,"la1":30.2991,"la2":30.254,"lo1":-89.0895,"lo2":-89.0444,"dy":0.0017,"dx":0.0017,"nx":28,"ny":28,"refTime":"2026-02-16T03:00:00:Z","depth":0,"parameterNumber":3,"parameterNumberName":"V-component_of_WINDS"},"data":[0,0,0,0,0,0,0,0,0,0,0,0,0,0,0,0,0,0,0,0,0,0,0,0,0,0,0,0,0,0,0,0,0,0,0,0,0,0,0,0,0,0,0,0,0,0,0,0,0,0,0,0,0,0,0,0,0,0,-6.5752,-6.5753,0,-6.5877,-6.5878,-6.588,-6.587,-6.5868,-6.5866,-6.5865,-6.5989,-6.5994,-6.5999,0,0,0,0,0,0,0,0,0,0,0,0,0,-6.5502,-6.5507,-6.5752,-6.5753,-6.5755,-6.5877,-6.5878,-6.588,-6.587,-6.5868,-6.5866,-6.5864,-6.5987,-6.5993,-6.5999,0,0,0,0,0,0,0,0,0,0,0,0,0,-6.5617,-6.5508,-6.5751,-6.5765,-6.5767,-6.5876,-6.5878,-6.588,-6.5871,-6.5868,-6.5865,-6.5863,-6.5985,-6.5993,-6.6,-6.6103,0,0,-6.6023,-6.6027,0,0,0,0,0,0,0,0,-6.561,-6.5626,-6.5761,-6.5764,-6.5767,-6.5855,-6.5836,-6.5955,-6.5872,-6.5831,-6.5865,-6.5861,-6.5947,-6.5957,-6.5987,-6.6109,-6.6114,-6.6024,-6.6029,-6.6032,-6.6034,0,0,0,0,0,0,0,-6.5603,-6.5621,-6.5801,-6.5763,-6.5767,-6.5764,-6.5777,-6.5858,-6.5903,-6.5835,-6.5834,-6.5849,-6.5948,-6.5979,-6.5989,-6.6116,-6.6024,-6.6031,-6.6035,-6.6038,-6.633,-6.6333,0,0,0,0,0,0,-6.5592,-6.5614,-6.5797,-6.5805,-6.568,-6.5771,-6.5785,-6.583,-6.5902,-6.5911,-6.5852,-6.5849,-6.5968,-6.5981,-6.5994,-6.612,-6.6032,-6.6039,-6.6043,-6.6327,-6.6331,-6.6334,0,0,0,0,0,0,-6.5587,-6.5608,-6.5792,-6.571,-6.5733,-6.5778,-6.5827,-6.5833,-6.5865,-6.5915,-6.5923,-6.5876,-6.5966,-6.5983,-6.6077,-6.6124,-6.6042,-6.6049,-6.6323,-6.6328,-6.6333,-6.6372,0,0,0,0,0,0,-6.5579,-6.5606,-6.5646,-6.5711,-6.5737,-6.5873,-6.583,-6.5838,-6.5879,-6.5876,-6.594,-6.5948,-6.5965,-6.6065,-6.6084,-6.6133,-6.6055,-6.6319,-6.6326,-6.6331,-6.6367,-6.6378,-6.6387,0,0,0,0,0,-6.5571,-6.5651,-6.5648,-6.5671,-6.5788,-6.5876,-6.5891,-6.5911,-6.5883,-6.5923,-6.5955,-6.5946,-6.6116,-6.6075,-6.6096,-6.6148,-6.6316,-6.6324,-6.6331,-6.6362,-6.6376,-6.6387,0,0,0,0,0,0,-6.559,-6.566,-6.5657,-6.5762,-6.5813,-6.5874,-6.5926,-6.5924,-6.5983,-6.5978,-6.5998,-6.6013,-6.6107,-6.6137,-6.609,-6.6252,-6.6212,-6.6224,-6.6229,-6.6242,-6.6252,-6.6243,-6.6062,0,0,0,0,0,-6.5607,-6.5673,-6.573,-6.5817,-6.5843,-6.588,-6.5919,-6.593,-6.5983,-6.6005,-6.6044,-6.6095,-6.6161,-6.6203,-6.6265,-6.6371,-6.6385,-6.6417,-6.6427,-6.6435,-6.6445,-6.6504,-6.652,-6.6358,-6.6358,-6.6358,0,0,-6.5641,-6.5688,-6.5728,-6.5822,-6.5863,-6.5931,-6.5898,-6.5971,-6.6022,-6.6015,-6.6107,-6.6137,-6.6196,-6.6297,-6.6343,-6.6324,-6.6493,-6.6445,-6.6451,-6.6456,-6.6513,-6.6529,-6.6542,-6.6363,-6.6362,-6.6361,0,0,-6.5739,-6.5781,-6.5858,-6.5901,-6.5964,-6.5989,-6.6007,-6.607,-6.609,-6.6182,-6.6179,-6.6239,-6.6351,-6.6394,-6.643,-6.6546,-6.654,-6.6566,-6.6618,-6.6676,-6.6688,-6.67,-6.6742,-6.6757,-6.6575,-6.6575,-6.6576,0,-6.5773,-6.5877,-6.5897,-6.5972,-6.6014,-6.6013,-6.6091,-6.6131,-6.6211,-6.624,-6.6218,-6.6359,-6.6399,-6.651,-6.6538,-6.6568,-6.6589,-6.6558,-6.6685,-6.6697,-6.6708,-6.6748,-6.6764,-6.6578,-6.6578,-6.6578,-6.6577,0,-6.5917,-6.5988,-6.6043,-6.6123,-6.617,-6.6246,-6.6278,-6.6323,-6.633,-6.6357,-6.6451,-6.6499,-6.6572,-6.6599,-6.6605,-6.6711,-6.6698,-6.6681,-6.6641,-6.6726,-6.6764,-6.6779,-6.6582,-6.6581,-6.658,-6.658,0,0,-6.6029,-6.6121,-6.614,-6.6177,-6.6248,-6.6304,-6.6379,-6.6452,-6.6491,-6.6547,-6.6611,-6.6707,-6.6692,-6.6733,-6.6745,-6.6795,-6.6885,-6.6772,-6.6773,-6.6791,-6.7005,-6.7018,-6.7035,-6.6882,-6.6885,-6.6887,-6.7,0,-6.6134,-6.627,-6.6292,-6.6411,-6.6478,-6.6479,-6.6546,-6.6596,-6.6623,-6.6684,-6.6713,-6.6781,-6.6756,-6.6781,-6.6831,-6.6863,-6.6928,-6.6855,-6.6941,-6.6944,-6.6926,-6.7055,-6.7069,-6.7173,-6.7015,-6.7018,-6.702,0,-6.6275,-6.6337,-6.6463,-6.6527,-6.6556,-6.6615,-6.6684,-6.6742,-6.6799,-6.6816,-6.6863,-6.6869,-6.6947,-6.6905,-6.7014,-6.6964,-6.7,-6.7022,-6.7026,-6.7035,-6.6987,-6.7068,-6.7207,-6.7223,-6.7043,-6.7041,-6.704,0,-6.6345,-6.646,-6.6551,-6.6582,-6.6658,-6.67,-6.6733,-6.6788,-6.6831,-6.6891,-6.6919,-6.6987,-6.7025,-6.7077,-6.7101,-6.7068,-6.7208,-6.7168,-6.7224,-6.7223,-6.7253,-6.7251,-6.7401,-6.7276,-6.7276,-6.7276,-6.7275,0,-6.6461,-6.6538,-6.6583,-6.6639,-6.6726,-6.675,-6.6835,-6.6867,-6.6917,-6.6978,-6.6983,-6.7041,-6.7069,-6.7131,-6.715,-6.7238,-6.7254,-6.7269,-6.7273,-6.7269,-6.7267,-6.7293,-6.7286,-6.728,-6.7279,-6.7278,-6.7277,0,-6.6553,-6.6587,-6.6686,-6.6751,-6.6769,-6.683,-6.6885,-6.694,-6.6967,-6.7045,-6.7065,-6.7108,-6.7181,-6.7211,-6.73,-6.7313,-6.7414,-6.7412,-6.7395,-6.7396,-6.7451,-6.7445,-6.7622,-6.7647,-6.7506,-6.7507,-6.7508,0,-6.6625,-6.6685,-6.6757,-6.68,-6.6835,-6.6903,-6.6948,-6.6974,-6.702,-6.7091,-6.7136,-6.721,-6.727,-6.7387,-6.7426,-6.7494,-6.7494,-6.7552,-6.7505,-6.7499,-6.7496,-6.7492,-6.7498,-6.756,-6.7562,-6.7563,-6.7564,0,-6.6749,-6.6763,-6.6827,-6.6899,-6.6952,-6.7009,-6.7064,-6.7099,-6.7133,-6.7185,-6.7261,-6.7308,-6.74,-6.7473,-6.7544,-6.7577,-6.7577,-6.7579,-6.7595,-6.7591,-6.7579,-6.7587,-6.7419,-6.7574,-6.7573,-6.7572,-6.7572,-6.7571,-6.6833,-6.6887,-6.6947,-6.7019,-6.7064,-6.7116,-6.7171,-6.7206,-6.727,-6.7349,-6.736,-6.7441,-6.7498,-6.7594,-6.763,-6.7694,-6.7679,-6.7703,-6.7709,-6.7715,-6.7719,-6.7569,-6.7707,-6.7707,-6.7706,-6.7706,-6.7706,0,-6.6958,-6.6997,-6.7063,-6.7142,-6.7199,-6.7195,-6.7256,-6.7304,-6.7376,-6.7429,-6.749,-6.7577,-6.7649,-6.7694,-6.7765,-6.7808,-6.7809,-6.7826,-6.7823,-6.7831,-6.7728,-6.7706,-6.7823,-6.7823,-6.7823,-6.7823,-6.7823,-6.7823,-6.7029,-6.7121,-6.7142,-6.7256,-6.7294,-6.7375,-6.7411,-6.7459,-6.7502,-6.76,-6.7661,-6.769,-6.774,-6.7816,-6.7881,-6.7893,-6.7919,-6.7937,-6.7947,-6.785,-6.7838,-6.7826,-6.7806,-6.7942,-6.7942,-6.8044,-6.8045,-6.8046]}]]